STARLINK-3770 (52554 NORAD) Tracking and Keplerian Element Data
This shows tracking and keplerian element data for the satellite.
Feedback or suggestion? Click here.
Element | Value |
Catalog | 52554 |
Name | STARLINK-3770 |
Epoch Orbit | 130 |
Epoch Day | 167.08334491 |
Epoch Year | 2022 |
RAAN | 132.2665 |
Inclination | 53.2172 |
Eccentricity | 0.0001887 |
Argument of Perigee | 38.5088 |
Mean Anonmoly | 118.0856 |
Mean Motion | 15.32485577 |
Decay Rate | -0.00839359 |
L1 | 1 52554U 22051X 22167.08334491 -.00839359 00000+0 -28575-1 0 9997 |
L2 | 2 52554 53.2172 132.2665 0001887 38.5088 118.0856 15.32485577 1304 |
Live tracking and technical data element details for STARLINK-3770 (NORAD 52554). STARLINK-3770 can be tracked NOW for your location showing map with azimuth and elevation plus other details from your city location.
Track the satellite on the map from your city or location and see movement details for azimuth, elevation, latitude, longitude, range, height, and movement on the map or in text.
IsCatalogInMostPopularTable: catalog: 52554, numindb: 3
Update: records affected: 1
GetName: 52554 STARLINK-3770
Hit Count: updated at: Mon, 27 Jun 2022 05:04:18 GMT